Missoula, MT

11:11 AM MDT on June 29, 2017 (GMT -0600)
Missoula International

Weather History for KMSO - October, 2013

Change the Weather History Date:

Thursday, October 3, 2013

  Actual Average Record
Temperature  
Mean Temperature 45 °F 50 °F  
Max Temperature 51 °F 65 °F 85 °F (1963)
Min Temperature 38 °F 36 °F 23 °F (1953)
Degree Days  
Heating Degree Days 20 15  
Month to date heating degree days 58 43  
Since 1 July heating degree days 259 368  
Cooling Degree Days 0 0  
Month to date cooling degree days 0 0  
Year to date cooling degree days 579 332  
Moisture  
Dew Point 29 °F    
Average Humidity 59    
Maximum Humidity 79    
Minimum Humidity 39    
Precipitation  
Precipitation 0.00 in 0.03 in 0.68 in (1957)
Month to date precipitation 0.03 0.09  
Year to date precipitation 7.76 11.29  
Snow  
Snow 0.00 in - - ()
Month to date snowfall 0.0  
Year to date snowfall 27.4  
Since 1 July snowfall T  
Snow Depth 0.00 in    
Sea Level Pressure  
Sea Level Pressure 30.20 in    
Wind  
Wind Speed 7 mph (NW)    
Max Wind Speed 16 mph    
Max Gust Speed 23 mph    
Visibility 10 miles    
Events      
T = Trace of Precipitation, MM = Missing Value Source: NWS Daily Summary

Daily Weather History Graph

Daily Weather History Graph

Search for Another Location

Airport or City:

Trip Planner

Search our weather history database for the weather conditions in past years. The results will help you decide how hot, cold, wet, or windy it might be!

Date:

Astronomy

Oct. 03, 2013 Rise Set
Actual Time 7:38 AM MDT 7:11 PM MDT
Civil Twilight 7:07 AM MDT 7:41 PM MDT
Nautical Twilight 6:32 AM MDT 8:16 PM MDT
Astronomical Twilight 5:56 AM MDT 8:52 PM MDT
Moon 6:12 AM MDT (10/3) 6:23 PM MDT (10/3)
Length of Visible Light 12h 33m
Length of Day
11h 33m
Waning Crescent, 2% of the Moon is Illuminated
Oct 3
Waning Crescent
Oct 4
New
Oct 11
First Quarter
Oct 18
Full
Oct 26
Last Quarter

Hourly Weather History & Observations

Time (MDT) Temp. Windchill Dew Point Humidity Pressure Visibility Wind Dir Wind Speed Gust Speed Precip Events Conditions
12:53 AM 43.0 °F 37.7 °F 30.0 °F 60% 29.99 in 10.0 mi NW 9.2 mph - N/A   Clear
1:53 AM 41.0 °F 36.4 °F 30.0 °F 65% 30.00 in 10.0 mi WNW 6.9 mph - N/A   Mostly Cloudy
2:53 AM 41.0 °F - 32.0 °F 70% 30.01 in 10.0 mi Calm Calm - N/A   Overcast
3:53 AM 39.0 °F 32.8 °F 30.9 °F 73% 30.02 in 10.0 mi WNW 9.2 mph - N/A   Overcast
4:53 AM 41.0 °F 35.8 °F 30.9 °F 67% 30.03 in 10.0 mi WNW 8.1 mph - N/A   Overcast
5:53 AM 39.9 °F 33.4 °F 32.0 °F 73% 30.05 in 10.0 mi WNW 10.4 mph - N/A   Overcast
6:53 AM 41.0 °F 35.2 °F 32.0 °F 70% 30.08 in 10.0 mi NW 9.2 mph - N/A   Overcast
7:53 AM 39.0 °F 33.4 °F 33.1 °F 79% 30.11 in 10.0 mi West 8.1 mph - N/A   Overcast
8:53 AM 41.0 °F 35.8 °F 32.0 °F 70% 30.13 in 10.0 mi NW 8.1 mph - N/A   Overcast
9:53 AM 44.1 °F 40.1 °F 30.0 °F 58% 30.16 in 10.0 mi NW 6.9 mph - N/A   Overcast
10:53 AM 46.0 °F 41.9 °F 30.0 °F 54% 30.18 in 10.0 mi NW 8.1 mph - N/A   Overcast
11:53 AM 48.0 °F - 28.9 °F 48% 30.19 in 10.0 mi NNW 11.5 mph - N/A   Overcast
12:53 PM 48.9 °F - 28.0 °F 44% 30.21 in 10.0 mi North 13.8 mph 20.7 mph N/A   Overcast
1:53 PM 50.0 °F - 27.0 °F 41% 30.22 in 10.0 mi North 12.7 mph - N/A   Overcast
2:53 PM 48.9 °F - 27.0 °F 43% 30.25 in 10.0 mi North 11.5 mph - N/A   Overcast
3:53 PM 48.0 °F - 26.1 °F 42% 30.28 in 10.0 mi North 12.7 mph 23.0 mph N/A   Overcast
4:53 PM 48.9 °F - 26.1 °F 41% 30.29 in 10.0 mi NNE 9.2 mph 17.3 mph N/A   Overcast
5:53 PM 48.0 °F - 25.0 °F 41% 30.32 in 10.0 mi WSW 3.5 mph - N/A   Overcast
6:53 PM 46.9 °F - 26.1 °F 44% 30.34 in 10.0 mi NW 4.6 mph - N/A   Overcast
7:53 PM 46.9 °F - 26.1 °F 44% 30.37 in 10.0 mi Calm Calm - N/A   Overcast
8:53 PM 46.0 °F 44.8 °F 26.1 °F 46% 30.39 in 10.0 mi NNW 3.5 mph - N/A   Overcast
10:53 PM 43.0 °F - 28.0 °F 56% 30.41 in 10.0 mi Calm Calm - N/A   Overcast
11:53 PM 39.9 °F 35.8 °F 27.0 °F 60% 30.44 in 10.0 mi NW 5.8 mph - N/A   Mostly Cloudy